Wind_Speed
17 15 12 11 5 8 14 11 13 8 11 18 14 13 8 6 3 3 8 7 1 3 4 5 6 5 7 5 4 4 6 9 10 11 11 12 14 15 15 13 11 8 8 8 8 8 9 10 11
17 16 13 12 10 16 15 14 14 11 13 18 16 14 8 5 3 6 7 5 1 2 2 2 5 11 12 9 6 3 3 7 11 12 12 14 15 19 20 16 12 9 10 9 9 9 9 10 13
17 16 11 9 16 21 13 11 13 15 18 18 14 14 11 6 4 5 4 3 2 2 1 4 8 12 13 12 8 4 1 3 8 11 13 17 23 22 24 26 9 11 11 11 10 9 9 9 11
16 17 18 17 19 12 14 11 12 13 20 19 15 10 15 9 4 5 5 3 2 2 3 6 9 11 13 15 13 7 4 4 8 10 12 16 21 25 15 14 14 16 13 13 11 10 10 11 13
17 17 17 19 23 20 10 13 17 13 13 20 20 14 13 9 6 6 5 4 5 3 5 7 8 10 12 14 15 10 4 5 8 12 15 19 24 12 23 14 18 15 15 13 12 12 12 12 15
16 19 18 23 23 18 16 18 21 19 16 18 21 18 15 12 8 7 6 6 8 6 7 7 8 9 12 13 14 12 6 6 9 13 15 17 15 18 20 13 20 16 17 14 12 14 12 13 15
20 19 24 23 23 19 16 18 25 18 17 18 20 21 14 14 14 11 9 9 10 11 11 11 10 10 11 12 13 11 7 5 10 14 16 16 18 19 16 10 20 16 13 15 20 22 16 16 19
23 21 25 25 24 23 17 17 18 18 14 24 20 15 15 21 19 16 12 12 12 13 13 15 14 12 12 13 13 10 9 6 7 13 18 19 19 19 17 21 20 23 21 22 20 26 26 18 18
27 25 29 26 22 20 16 12 21 22 17 19 22 24 27 25 22 19 16 12 12 13 15 15 13 13 14 13 14 12 9 9 7 12 17 20 23 24 20 19 19 23 29 26 24 21 25 19 18
32 29 31 24 22 19 14 13 14 21 19 17 20 23 26 28 25 21 19 17 14 13 13 13 13 12 14 14 15 15 12 12 11 11 17 23 27 27 22 16 18 27 20 27 20 24 21 21 22
33 39 25 25 28 27 24 22 19 21 22 20 19 17 24 26 26 25 23 20 16 15 13 16 16 15 15 15 15 15 15 15 15 15 17 23 26 28 25 24 20 23 28 20 26 24 22 22 21
35 30 32 28 29 32 32 25 25 25 25 23 22 27 26 25 26 26 25 22 21 19 16 15 17 16 13 14 15 14 17 19 22 17 19 23 27 29 29 27 25 20 26 25 25 30 24 22 22
33 32 28 28 34 33 33 35 32 31 25 29 33 35 33 29 31 29 27 26 25 23 20 19 18 17 13 13 14 15 19 23 26 20 18 23 28 30 31 28 30 23 26 28 21 28 25 22 25
20 20 24 26 27 30 33 40 33 30 29 29 32 33 36 37 34 35 34 32 30 28 25 23 22 20 18 17 17 18 19 23 26 22 19 22 27 30 30 30 29 24 28 29 20 30 29 25 27
24 27 27 28 27 30 26 40 38 32 31 33 32 33 32 32 34 36 35 36 34 33 31 29 26 25 21 21 22 21 19 22 25 21 17 19 25 30 31 30 29 26 21 25 21 31 29 28 29
22 24 27 20 17 20 23 41 9 12 14 23 24 22 29 31 32 31 30 31 34 34 32 29 30 28 22 22 22 22 19 21 22 20 15 17 22 29 31 33 31 30 27 26 28 31 31 27 30
27 34 27 23 16 16 23 30 19 17 20 23 23 23 23 23 25 25 25 27 30 27 27 26 30 29 25 25 23 24 20 20 20 20 15 15 20 25 29 35 34 31 29 29 24 24 34 30 31
24 29 27 30 25 23 27 33 25 22 19 18 18 20 22 24 25 24 28 29 28 26 25 24 26 28 27 27 25 25 22 20 20 19 17 16 19 24 28 34 41 35 34 33 31 30 38 32 30
31 32 32 26 18 19 24 30 27 25 28 28 29 32 29 27 28 27 30 30 28 28 27 28 27 30 29 28 25 23 23 22 21 20 18 19 22 23 23 25 37 40 40 37 33 29 36 33 35
31 34 40 30 25 24 27 39 32 31 32 31 30 29 30 30 29 29 31 33 29 30 29 30 26 30 29 27 25 24 24 22 22 22 21 21 23 27 25 28 34 37 44 42 38 36 35 36 37
34 35 32 28 22 26 27 45 34 34 34 32 32 31 29 30 30 32 32 33 33 30 30 31 31 30 28 25 26 25 23 23 23 22 21 20 24 27 29 28 37 36 47 47 41 43 38 37 38
33 28 26 25 19 27 18 31 21 11 11 14 16 18 23 29 30 29 28 32 35 34 33 33 32 30 30 27 26 25 23 22 23 24 20 21 24 24 30 34 31 27 46 51 40 42 44 41 38
39 26 21 15 19 21 26 19 18 20 20 13 16 20 25 24 21 22 24 27 33 36 33 32 30 30 29 28 26 24 24 23 24 24 18 19 25 27 28 32 34 34 46 45 44 49 48 42 40
28 18 16 15 16 19 29 24 18 22 12 11 12 12 11 10 11 12 14 22 28 33 32 33 31 30 30 31 29 25 22 22 24 21 17 19 23 25 30 33 33 35 41 49 47 50 45 44 43
33 27 13 12 12 17 15 18 30 8 12 11 13 11 10 8 10 10 10 18 23 27 28 35 33 30 29 33 29 24 21 21 22 18 18 19 22 25 30 28 30 36 36 46 56 49 49 38 38
33 39 20 19 13 15 16 13 16 15 18 18 14 13 10 8 5 5 7 11 14 18 24 35 33 27 27 28 26 23 21 20 19 17 16 19 21 17 20 23 25 30 34 41 48 49 48 36 37
36 37 42 25 18 11 20 21 16 15 19 22 21 15 11 10 11 15 15 13 12 16 21 30 35 31 26 26 27 22 19 18 17 15 15 17 16 15 17 24 25 29 34 34 43 51 52 43 39
33 31 33 28 19 20 22 24 14 19 23 20 22 17 13 13 17 15 16 17 16 14 19 27 35 35 29 27 26 21 18 16 16 13 15 13 10 11 16 15 29 28 31 40 38 35 40 40 41
30 28 35 34 28 15 14 17 16 15 22 20 16 16 15 14 14 14 22 22 19 15 16 24 34 36 31 31 26 21 16 15 15 13 14 11 10 14 15 17 28 30 32 32 30 35 39 42 41
32 28 35 29 30 30 20 11 15 18 18 17 18 15 13 9 13 20 19 21 19 16 17 23 29 35 33 30 26 21 17 15 15 13 12 10 10 11 15 16 26 28 29 34 42 37 35 38 36
Wind_Direction
257 256 250 253 240 231 238 232 215 203 212 204 195 188 190 192 193 289 310 339 150 217 242 253 288 6 3 350 322 278 230 211 211 214 227 235 224 221 223 222 219 228 230 217 210 211 203 203 200
252 249 242 238 233 233 235 221 215 206 200 192 197 198 199 226 280 322 329 343 33 206 233 309 21 21 14 10 358 337 225 204 208 217 219 228 220 224 207 215 220 224 240 224 217 217 211 214 213
248 243 230 234 242 239 246 222 214 209 204 195 202 202 210 226 298 316 323 345 51 23 350 359 11 16 14 12 0 337 273 206 211 222 226 227 229 210 222 192 245 249 245 238 220 224 222 230 215
243 240 236 232 239 242 231 225 194 209 214 206 195 206 216 223 289 294 313 314 302 304 337 354 7 4 5 6 2 335 306 248 218 214 226 228 222 220 218 215 241 241 246 225 223 235 231 217 210
240 233 234 243 247 240 231 208 207 204 209 207 214 214 211 226 259 281 284 289 258 281 298 328 345 339 349 356 359 343 317 279 240 220 229 227 230 171 209 214 202 226 223 223 226 234 229 214 209
238 228 238 241 249 249 237 225 214 210 224 218 221 225 229 228 231 247 257 263 253 272 296 295 315 313 331 344 353 354 330 277 257 240 236 242 250 258 286 228 217 226 239 246 245 235 223 207 207
234 243 244 248 251 249 251 235 227 239 237 244 239 230 224 218 220 224 240 250 255 262 281 286 296 295 313 330 338 348 336 289 266 255 245 239 250 260 268 233 229 225 249 249 282 275 228 207 208
239 242 249 245 249 257 254 238 230 232 238 242 235 207 201 213 217 223 218 236 256 269 275 279 276 284 293 312 320 330 327 312 284 256 253 245 250 252 264 250 226 238 251 264 259 249 235 204 210
241 241 245 242 250 249 260 252 239 230 227 219 205 204 205 214 224 229 227 231 250 267 276 274 272 274 284 302 306 313 315 308 291 257 250 244 241 240 252 257 251 239 257 255 257 200 211 200 208
235 241 244 245 246 251 256 244 242 231 232 229 219 216 217 225 227 228 237 241 240 252 272 267 268 271 279 291 293 304 309 304 294 266 251 241 237 238 247 253 248 256 242 243 216 203 198 200 207
244 242 248 250 251 259 259 257 246 241 234 237 235 234 225 228 232 235 238 245 241 247 255 252 260 268 279 285 285 298 304 308 299 273 258 247 243 238 242 241 248 250 228 226 207 202 195 201 209
247 244 248 250 259 263 261 261 255 246 245 236 239 224 227 232 234 241 241 240 249 253 254 254 255 265 273 275 280 294 308 315 313 289 255 244 240 240 237 238 240 257 235 218 216 214 204 209 217
250 252 252 260 257 259 262 258 258 257 254 233 241 235 235 234 237 239 244 245 249 256 260 259 256 263 261 262 280 303 313 310 315 301 261 242 235 235 238 237 237 249 235 217 207 204 209 211 215
250 261 254 254 258 259 260 260 262 257 264 249 246 244 244 246 247 244 244 250 253 258 261 258 257 256 257 256 271 285 310 309 313 303 276 245 235 229 232 236 236 242 227 221 223 210 219 218 214
258 261 262 259 260 257 268 264 259 264 263 264 254 249 249 250 249 247 246 250 253 255 258 257 254 253 255 256 263 276 298 310 313 303 284 246 230 228 226 230 232 232 214 220 217 218 214 209 211
264 263 262 260 254 253 246 259 250 253 246 248 252 253 253 248 247 247 247 250 254 256 257 257 253 249 251 252 260 269 285 304 310 302 292 254 233 221 221 226 226 227 218 220 217 214 196 202 208
252 255 256 255 251 244 242 264 264 255 250 256 253 256 251 248 246 246 246 242 248 255 255 257 245 246 244 253 257 263 273 295 306 299 290 269 237 223 224 223 227 225 224 210 204 209 196 203 205
245 251 256 257 254 257 253 262 257 257 262 255 247 245 248 249 251 249 245 242 247 253 252 247 238 240 240 250 254 259 266 285 298 298 279 265 246 232 226 222 228 222 221 205 206 213 197 204 205
249 257 259 259 264 251 256 266 262 259 258 257 255 256 257 258 254 250 247 240 244 246 249 240 247 242 241 250 255 260 266 276 292 295 278 257 241 238 232 247 229 215 214 204 206 191 199 202 205
246 252 256 262 255 261 269 268 266 262 259 258 259 258 260 259 256 250 248 242 241 240 243 239 241 240 242 244 252 255 263 275 288 292 283 258 243 234 240 244 224 225 210 203 205 198 205 209 210
244 244 253 257 261 260 271 274 270 267 260 259 258 259 256 250 249 249 247 245 240 243 241 238 238 241 242 243 248 252 261 275 287 291 277 254 248 241 236 240 238 236 213 209 202 205 203 210 211
247 248 252 248 246 256 251 268 267 247 246 243 243 246 244 242 247 248 245 244 242 244 239 239 236 239 240 243 250 255 260 271 282 285 269 248 245 245 242 247 237 240 216 204 212 204 207 210 212
247 247 237 231 235 253 249 259 266 254 255 246 227 229 239 246 253 256 252 243 243 240 237 234 231 233 241 245 247 252 252 267 280 283 269 253 248 247 243 242 236 231 219 228 214 205 207 207 216
237 225 222 229 231 236 242 239 258 245 228 238 236 233 224 234 241 254 253 250 246 240 233 230 228 229 240 248 246 244 247 266 279 276 267 262 264 255 242 239 244 230 227 220 218 209 212 212 209
218 217 212 210 206 236 231 224 235 233 212 199 197 225 224 256 266 258 255 241 246 244 233 232 232 233 244 250 241 234 245 265 276 268 268 268 273 269 243 237 238 237 225 219 211 215 214 213 203
217 214 213 214 214 228 206 233 229 218 212 208 226 225 233 278 288 281 288 256 246 242 234 228 226 229 241 244 227 226 245 262 267 268 272 270 274 262 239 236 242 224 216 218 211 213 214 204 216
214 215 216 235 249 247 211 238 235 226 200 219 233 239 266 265 286 307 296 294 286 242 238 231 223 226 237 231 218 223 242 259 255 263 270 269 272 233 249 231 213 208 208 210 208 218 214 211 215
214 217 218 224 229 226 233 228 239 198 192 198 215 230 257 267 300 309 304 302 300 271 242 232 223 226 232 221 213 223 238 252 248 259 261 264 250 224 242 218 197 203 206 207 207 202 207 201 206
201 217 215 218 221 233 234 218 217 194 192 185 205 234 244 273 290 302 313 304 304 285 260 236 227 225 227 213 212 221 231 240 241 249 257 254 222 230 239 220 208 204 195 181 182 198 197 203 206
218 211 203 207 218 231 251 222 189 200 196 193 213 235 245 264 293 311 313 326 301 283 258 239 229 220 217 203 211 217 223 229 234 240 247 239 214 207 201 207 191 184 199 196 200 206 207 220 214
Height
3137 3138 3139 3141 3147 3141 3138 3138 3135 3136 3137 3137 3139 3140 3143 3143 3144 3146 3141 3139 3140 3140 3140 3140 3140 3139 3138 3136 3136 3136 3135 3135 3137 3137 3139 3138 3140 3141 3143 3144 3146 3148 3151 3152 3154 3155 3157 3159 3160
3135 3136 3137 3138 3141 3136 3133 3135 3134 3136 3134 3135 3137 3138 3141 3143 3141 3140 3139 3137 3137 3138 3138 3138 3138 3137 3136 3135 3134 3134 3134 3134 3135 3136 3137 3137 3138 3138 3139 3144 3144 3146 3149 3151 3153 3154 3156 3158 3160
3132 3133 3137 3137 3134 3131 3131 3132 3134 3131 3132 3133 3135 3137 3139 3141 3139 3138 3138 3137 3136 3137 3137 3136 3136 3135 3134 3133 3133 3133 3133 3133 3133 3135 3135 3136 3134 3135 3136 3128 3143 3144 3148 3150 3151 3153 3156 3157 3159
3129 3131 3132 3130 3129 3130 3130 3131 3130 3129 3130 3131 3133 3135 3136 3137 3137 3137 3136 3136 3136 3136 3136 3135 3135 3134 3133 3132 3131 3131 3131 3131 3132 3133 3134 3135 3136 3134 3135 3138 3140 3143 3146 3149 3151 3153 3154 3156 3158
3127 3128 3129 3125 3125 3128 3126 3127 3126 3127 3127 3129 3130 3132 3134 3135 3135 3136 3135 3135 3135 3134 3134 3134 3133 3133 3132 3131 3131 3129 3129 3130 3132 3132 3133 3133 3132 3118 3125 3139 3131 3140 3146 3148 3150 3151 3153 3155 3157
3124 3124 3124 3121 3122 3122 3123 3124 3123 3124 3126 3127 3127 3129 3132 3132 3132 3133 3134 3134 3133 3133 3132 3132 3131 3131 3131 3130 3130 3128 3128 3128 3129 3130 3131 3131 3134 3135 3137 3136 3139 3142 3145 3147 3149 3150 3151 3154 3156
3119 3121 3118 3118 3119 3119 3119 3119 3120 3122 3123 3123 3124 3126 3129 3128 3128 3129 3130 3131 3131 3131 3130 3130 3129 3129 3128 3128 3128 3128 3127 3127 3127 3128 3129 3130 3132 3134 3133 3135 3139 3142 3144 3146 3147 3150 3151 3153 3155
3115 3117 3114 3114 3114 3116 3117 3114 3116 3118 3121 3118 3120 3123 3125 3121 3122 3124 3126 3128 3129 3129 3128 3128 3127 3127 3127 3126 3126 3126 3125 3125 3125 3126 3128 3129 3130 3130 3133 3136 3138 3139 3141 3143 3143 3145 3151 3150 3153
3111 3109 3106 3110 3111 3112 3110 3110 3111 3113 3115 3115 3115 3116 3115 3117 3119 3121 3122 3124 3125 3126 3126 3125 3125 3124 3124 3123 3123 3123 3123 3122 3123 3122 3124 3124 3126 3127 3131 3132 3134 3137 3138 3139 3138 3140 3147 3148 3151
3102 3101 3102 3107 3106 3107 3107 3108 3110 3109 3111 3112 3113 3112 3113 3115 3116 3117 3119 3120 3121 3122 3122 3122 3122 3121 3121 3121 3121 3121 3120 3120 3119 3119 3119 3121 3122 3123 3127 3127 3130 3132 3133 3134 3134 3140 3143 3145 3149
3094 3090 3100 3099 3099 3100 3101 3101 3104 3103 3106 3108 3110 3109 3110 3111 3113 3113 3115 3116 3117 3118 3118 3118 3118 3118 3118 3118 3117 3118 3118 3117 3116 3116 3115 3116 3117 3118 3122 3123 3125 3127 3129 3130 3133 3137 3139 3144 3147
3086 3088 3090 3094 3094 3093 3094 3096 3094 3096 3099 3102 3102 3102 3104 3106 3107 3108 3110 3111 3112 3113 3113 3114 3114 3114 3115 3115 3114 3113 3113 3112 3112 3110 3110 3110 3112 3114 3117 3119 3121 3123 3124 3126 3129 3133 3139 3141 3144
3079 3082 3085 3084 3086 3087 3087 3085 3086 3087 3092 3095 3093 3096 3098 3100 3102 3103 3105 3106 3107 3108 3109 3109 3109 3110 3110 3111 3110 3109 3108 3106 3105 3103 3103 3105 3108 3111 3113 3115 3117 3119 3119 3121 3125 3129 3135 3139 3142
3079 3077 3077 3079 3079 3080 3079 3078 3081 3081 3083 3086 3088 3090 3091 3092 3095 3097 3098 3100 3101 3101 3103 3103 3104 3105 3106 3106 3105 3105 3104 3102 3100 3098 3097 3099 3101 3105 3108 3110 3113 3114 3115 3118 3122 3126 3131 3136 3139
3070 3070 3071 3072 3073 3072 3075 3067 3069 3074 3076 3077 3080 3081 3083 3085 3087 3088 3091 3093 3094 3095 3096 3097 3098 3099 3100 3101 3101 3101 3100 3098 3096 3094 3091 3092 3095 3098 3102 3106 3108 3111 3112 3115 3119 3122 3125 3130 3135
3066 3066 3065 3068 3066 3067 3072 3055 3067 3067 3068 3069 3071 3072 3074 3077 3078 3080 3083 3086 3086 3088 3089 3091 3091 3093 3095 3095 3096 3096 3096 3095 3092 3090 3088 3087 3088 3092 3096 3100 3103 3106 3109 3111 3115 3118 3121 3127 3131
3060 3056 3059 3062 3062 3063 3062 3056 3064 3061 3062 3064 3063 3065 3067 3069 3070 3073 3076 3078 3078 3080 3081 3082 3083 3086 3089 3089 3090 3091 3091 3090 3088 3086 3084 3083 3084 3086 3090 3094 3097 3101 3104 3106 3110 3114 3118 3123 3128
3053 3053 3054 3054 3059 3056 3054 3051 3056 3057 3056 3056 3057 3058 3060 3061 3064 3067 3067 3069 3070 3072 3074 3075 3077 3079 3082 3083 3084 3085 3086 3085 3084 3082 3080 3079 3079 3081 3084 3087 3089 3094 3099 3100 3105 3109 3115 3119 3124
3049 3048 3046 3050 3052 3050 3048 3046 3048 3050 3049 3049 3048 3048 3052 3053 3056 3059 3059 3061 3063 3064 3066 3068 3070 3072 3075 3077 3079 3080 3081 3080 3079 3077 3075 3075 3075 3076 3078 3081 3081 3085 3091 3096 3101 3104 3110 3115 3119
3041 3040 3036 3044 3046 3046 3044 3034 3040 3041 3040 3040 3039 3041 3043 3045 3047 3049 3051 3053 3055 3057 3059 3061 3064 3066 3069 3071 3073 3074 3075 3074 3072 3070 3069 3069 3069 3071 3072 3075 3076 3077 3086 3088 3094 3101 3106 3110 3115
3030 3030 3033 3038 3041 3039 3039 3022 3030 3029 3028 3029 3030 3032 3034 3035 3037 3039 3042 3045 3048 3050 3052 3055 3057 3059 3062 3065 3067 3068 3068 3068 3066 3065 3063 3062 3063 3064 3065 3067 3069 3073 3075 3082 3089 3095 3100 3104 3110
3021 3026 3030 3032 3035 3030 3033 3011 3021 3019 3021 3021 3022 3024 3025 3027 3028 3031 3034 3037 3039 3041 3045 3047 3050 3053 3055 3058 3060 3061 3062 3062 3061 3059 3057 3056 3057 3057 3059 3061 3061 3062 3068 3075 3082 3089 3094 3099 3107
3011 3024 3024 3025 3025 3027 3023 3022 3010 3014 3014 3015 3016 3017 3019 3022 3023 3025 3026 3029 3030 3032 3037 3040 3042 3045 3048 3050 3052 3054 3055 3056 3054 3053 3051 3050 3051 3051 3052 3054 3055 3056 3061 3067 3074 3081 3086 3094 3102
3014 3017 3019 3019 3020 3016 3014 3017 3005 3008 3012 3013 3011 3013 3016 3018 3020 3020 3020 3021 3021 3024 3029 3033 3034 3038 3041 3043 3045 3047 3049 3050 3049 3047 3046 3044 3044 3043 3044 3046 3047 3048 3052 3058 3066 3075 3081 3087 3095
3005 3009 3008 3012 3008 2997 3005 3009 3003 3004 3007 3008 3008 3010 3012 3014 3015 3016 3015 3014 3014 3016 3021 3025 3028 3031 3034 3035 3038 3041 3043 3044 3043 3040 3039 3038 3036 3034 3036 3037 3039 3040 3044 3051 3059 3067 3075 3080 3088
2992 2997 2995 2991 2990 2994 3001 2998 2997 2999 3003 3002 3004 3006 3008 3010 3011 3011 3010 3010 3008 3010 3013 3017 3021 3024 3026 3029 3032 3035 3037 3038 3036 3035 3033 3032 3030 3028 3029 3030 3031 3034 3039 3045 3052 3061 3068 3076 3085
2983 2988 2987 2990 2990 2989 2987 2993 2994 2994 2998 2998 3000 3002 3004 3006 3007 3007 3005 3004 3003 3003 3005 3009 3014 3017 3020 3022 3026 3029 3032 3032 3031 3029 3028 3027 3025 3024 3023 3022 3026 3030 3034 3038 3048 3055 3061 3070 3081
2975 2982 2988 2987 2986 2982 2980 2981 2985 2988 2992 2993 2997 2999 3001 3002 3002 3001 3001 2999 2998 2998 2999 3002 3006 3010 3012 3016 3020 3024 3026 3026 3027 3025 3025 3023 3021 3020 3020 3020 3022 3026 3031 3037 3043 3049 3057 3065 3075
2970 2972 2979 2982 2981 2974 2974 2974 2981 2984 2988 2990 2993 2995 2997 2997 2996 2996 2996 2994 2992 2992 2992 2994 2998 3002 3006 3010 3016 3019 3021 3022 3023 3022 3022 3020 3018 3018 3016 3018 3020 3025 3029 3034 3041 3048 3054 3061 3069
2965 2968 2970 2972 2974 2975 2973 2974 2976 2982 2986 2988 2989 2992 2993 2993 2993 2992 2991 2990 2987 2986 2986 2988 2992 2996 3000 3004 3010 3014 3016 3017 3020 3019 3019 3017 3016 3016 3015 3018 3020 3025 3030 3035 3039 3046 3054 3060 3064